User: anonymous   Login
Location: Caltech
(34.1382°N, 118.1253°W)
Time: 04:53:14
(UTC-08:00)
Language:

Cosmos 2322 - Orbit

View from above orbital plane
View from above orbital plane
View from above satellite
View from above satellite

Ground track
Ground track

The orbit data is extracted from the following two-line orbital elements,

1 23704U 95058A   16040.87712284 -.00000273  00000-0 -12010-3 0  9994
2 23704  70.9874 357.7319 0006962 132.8316 227.3392 14.13344506 46138
Epoch (UTC): 09 February 2016 21:03:03
Eccentricity: 0.0006962
inclination: 70.9874°
perigee height: 843 km
apogee height: 853 km
right ascension of ascending node: 357.7319°
argument of perigee: 132.8316°
revolutions per day: 14.13344506
mean anomaly at epoch: 227.3392°
orbit number at epoch: 4613

The dashed part of the orbit path shows where the satellite is in the earth's shadow,  

DLR